Location: Unspecified
(0.0000°N, 0.0000°E)
Time: 08:38:02
(UTC+00:00)

N. Korean satellite - Pass Details

Date: 19 January 2019
Orbit: 455 x 511 km, 97.2° (Epoch: 18 March)

Event Time Altitude Azimuth Distance (km) Brightness Sun altitude
Rises 05:28:00 0° 25° (NNE) 2,566 10.3 -10.0°
Reaches altitude 10° 05:30:12 10° 34° (NE) 1,677 9.5 -9.5°
Maximum altitude 05:33:31 34° 101° (E) 808 8.5 -8.7°
Drops below altitude 10° 05:36:47 10° 167° (SSE) 1,655 9.7 -7.9°
Sets 05:38:56 0° 177° (S) 2,526 10.5 -7.4°
